San Jose, CA

6:58 PM PST on December 08, 2019 (GMT -0800)
San Jose International

Weather History for KSJC - November, 2019

Change the Weather History Date:

Sunday, November 17, 2019

  Actual Average Record
Temperature  
Mean Temperature 61 °F 55 °F  
Max Temperature 74 °F 64 °F 84 °F (1932)
Min Temperature 48 °F 46 °F 30 °F (1964)
Degree Days  
Heating Degree Days 4 10  
Month to date heating degree days 80 139  
Since 1 July heating degree days 182 249  
Cooling Degree Days 0 0  
Month to date cooling degree days 0 0  
Year to date cooling degree days 766 636  
Growing Degree Days 10 (Base 50)    
Moisture  
Dew Point 48 °F    
Average Humidity 65    
Maximum Humidity 89    
Minimum Humidity 41    
Precipitation  
Precipitation 0.00 in 0.06 in 1.30 in (1996)
Month to date precipitation 0.00 0.82  
Year to date precipitation 13.09 11.72  
Sea Level Pressure  
Sea Level Pressure 30.06 in    
Wind  
Wind Speed 2 mph (WNW)    
Max Wind Speed 10 mph    
Max Gust Speed 13 mph    
Visibility 10 miles    
Events      
T = Trace of Precipitation, MM = Missing Value Source: NWS Daily Summary

Daily Weather History Graph

Daily Weather History Graph

Search for Another Location

Airport or City:

Astronomy

Nov. 17, 2019 Rise Set
Actual Time 6:49 AM PST 4:55 PM PST
Civil Twilight 6:21 AM PST 5:23 PM PST
Nautical Twilight 5:49 AM PST 5:55 PM PST
Astronomical Twilight 5:18 AM PST 6:26 PM PST
Moon 9:39 PM PST (11/17) 11:37 AM PST (11/17)
Length of Visible Light 11h 02m
Length of Day
10h 06m
Waning Gibbous, 72% of the Moon is Illuminated
Nov 17
Waning Gibbous
Nov 19
Last Quarter
Nov 26
New
Dec 3
First Quarter
Dec 11
Full

Hourly Weather History & Observations

Time (PST) Temp. Dew Point Humidity Pressure Visibility Wind Dir Wind Speed Gust Speed Precip Events Conditions
12:53 AM 53.1 °F 48.9 °F 86% 30.09 in 10.0 mi Calm Calm - N/A   Clear
2:53 AM 51.1 °F 46.9 °F 86% 30.10 in 10.0 mi Calm Calm - N/A   Clear
3:53 AM 51.1 °F 46.0 °F 83% 30.09 in 10.0 mi Calm Calm - N/A   Clear
4:53 AM 50.0 °F 46.0 °F 86% 30.10 in 10.0 mi Calm Calm - N/A   Clear
5:38 AM 51.1 °F 46.0 °F 83% 30.10 in 10.0 mi Calm Calm - N/A   Partly Cloudy
5:53 AM 50.0 °F 45.0 °F 83% 30.11 in 10.0 mi Calm Calm - N/A   Partly Cloudy
6:53 AM 48.9 °F 44.1 °F 83% 30.11 in 10.0 mi Calm Calm - N/A   Mostly Cloudy
7:53 AM 52.0 °F 46.9 °F 83% 30.12 in 10.0 mi Calm Calm - N/A   Partly Cloudy
8:53 AM 55.9 °F 48.9 °F 77% 30.13 in 10.0 mi WNW 3.5 mph - N/A   Partly Cloudy
9:53 AM 60.1 °F 51.1 °F 72% 30.13 in 10.0 mi Calm Calm - N/A   Partly Cloudy
10:53 AM 64.0 °F 51.1 °F 63% 30.11 in 10.0 mi Calm Calm - N/A   Partly Cloudy
11:53 AM 68.0 °F 48.9 °F 50% 30.09 in 10.0 mi Calm Calm - N/A   Partly Cloudy
12:53 PM 70.0 °F 48.9 °F 47% 30.05 in 10.0 mi Calm Calm - N/A   Partly Cloudy
1:53 PM 73.0 °F 50.0 °F 44% 30.02 in 10.0 mi NNW 5.8 mph - N/A   Partly Cloudy
2:53 PM 73.0 °F 50.0 °F 44% 30.01 in 10.0 mi North 6.9 mph - N/A   Partly Cloudy
4:53 PM 69.1 °F 46.9 °F 45% 30.00 in 10.0 mi NNW 5.8 mph - N/A   Partly Cloudy
5:53 PM 66.9 °F 46.9 °F 49% 30.00 in 10.0 mi Calm Calm - N/A   Clear
6:53 PM 64.9 °F 46.9 °F 52% 30.01 in 10.0 mi Calm Calm - N/A   Clear
7:04 PM 64.4 °F 46.4 °F 52% 30.01 in 10.0 mi Calm Calm - N/A   Partly Cloudy
7:53 PM 62.6 °F 48.2 °F 59% 30.01 in 10.0 mi South 4.6 mph - N/A   Partly Cloudy
8:53 PM 61.0 °F 48.9 °F 64% 30.01 in 10.0 mi South 3.5 mph - N/A   Clear
9:53 PM 60.1 °F 46.9 °F 62% 30.00 in 10.0 mi SSE 3.5 mph - N/A   Clear
10:53 PM 57.9 °F 46.0 °F 65% 30.01 in 10.0 mi Calm Calm - N/A   Partly Cloudy
11:53 PM 55.0 °F 45.0 °F 69% 30.01 in 10.0 mi Calm Calm - N/A   Clear